Voltar ao catálogo

KUIPER-00534

AtivoComunicaçõesVLEO
NORAD 69606·PAYLOAD·🇺🇸 United States

Lançado Jun 17, 2026 de Guiana Space Centre

Loading…

Próximas Passagens (próximas 24 horas)

TLE

AtualizadoSource: CelesTrak SupGP

Época: Sep 14, 2026, 21:40 UTC

1 69606C 26140Q   26257.90280093 -.00040832  00000+0 -13404-2 0  2572
2 69606  51.8808 325.7356 0013697 115.5247 275.2257 15.30953201    11

Acompanhe KUIPER-00534 em tempo real com AllMySat

Download on the App Store